Time,TemperatureF,DewpointF,PressureIn,WindDirection,WindDirectionDegrees,WindSpeedMPH,WindSpeedGustMPH,Humidity,HourlyPrecipIn,Conditions,Clouds,dailyrainin,SoftwareType,DateUTC
2013-02-01 00:11:00,25.1,23.0,30.10,SW,219,2.0,4.0,91,0.00,,,0.00,weatherlink.com 1.10,2013-02-01 05:11:00,
2013-02-01 00:26:00,25.3,23.0,30.09,ENE,76,0.0,5.0,92,0.00,,,0.00,weatherlink.com 1.10,2013-02-01 05:26:00,
2013-02-01 00:41:00,25.5,24.0,30.08,North,5,6.0,8.0,92,0.00,,,0.00,weatherlink.com 1.10,2013-02-01 05:41:00,
2013-02-01 00:56:00,25.8,24.0,30.08,South,185,4.0,5.0,92,0.00,,,0.00,weatherlink.com 1.10,2013-02-01 05:56:00,
2013-02-01 01:11:00,25.8,24.0,30.07,ENE,66,1.0,5.0,93,0.00,,,0.00,weatherlink.com 1.10,2013-02-01 06:11:00,
2013-02-01 01:26:00,25.9,24.0,30.07,NNW,329,0.0,3.0,93,0.00,,,0.00,weatherlink.com 1.10,2013-02-01 06:26:00,
2013-02-01 01:41:00,25.9,24.0,30.06,West,272,3.0,3.0,94,0.00,,,0.00,weatherlink.com 1.10,2013-02-01 06:41:00,
2013-02-01 01:56:00,25.7,24.0,30.07,NNW,336,0.0,3.0,94,0.00,,,0.00,weatherlink.com 1.10,2013-02-01 06:56:00,
2013-02-01 02:11:00,25.5,24.0,30.07,SE,144,0.0,3.0,94,0.00,,,0.00,weatherlink.com 1.10,2013-02-01 07:11:00,
2013-02-01 02:26:00,25.6,24.0,30.07,NNW,332,2.0,8.0,94,0.00,,,0.00,weatherlink.com 1.10,2013-02-01 07:26:00,
2013-02-01 02:41:00,25.6,24.0,30.07,WNW,298,0.0,6.0,94,0.00,,,0.00,weatherlink.com 1.10,2013-02-01 07:41:00,
2013-02-01 02:56:00,25.0,24.0,30.11,NW,325,4.0,11.0,94,0.00,,,0.00,weatherlink.com 1.10,2013-02-01 07:56:00,
2013-02-01 03:11:00,23.6,22.0,30.14,NNW,342,6.0,9.0,94,0.00,,,0.00,weatherlink.com 1.10,2013-02-01 08:11:00,
2013-02-01 03:26:00,20.5,19.0,30.16,North,350,5.0,10.0,92,0.00,,,0.00,weatherlink.com 1.10,2013-02-01 08:26:00,
2013-02-01 03:41:00,19.4,18.0,30.18,West,277,2.0,5.0,92,0.00,,,0.00,weatherlink.com 1.10,2013-02-01 08:41:00,
2013-02-01 03:56:00,18.5,17.0,30.19,West,275,0.0,9.0,92,0.00,,,0.00,weatherlink.com 1.10,2013-02-01 08:56:00,
2013-02-01 04:11:00,17.0,15.0,30.20,WNW,283,6.0,10.0,90,0.00,,,0.00,weatherlink.com 1.10,2013-02-01 09:11:00,
2013-02-01 04:26:00,16.0,14.0,30.21,NNW,348,2.0,9.0,90,0.00,,,0.00,weatherlink.com 1.10,2013-02-01 09:26:00,
2013-02-01 04:41:00,14.7,12.0,30.22,NNE,32,1.0,10.0,89,0.00,,,0.00,weatherlink.com 1.10,2013-02-01 09:41:00,
2013-02-01 04:56:00,13.8,11.0,30.24,NNW,339,0.0,12.0,89,0.00,,,0.00,weatherlink.com 1.10,2013-02-01 09:56:00,
2013-02-01 05:11:00,13.2,11.0,30.24,WSW,240,9.0,16.0,89,0.00,,,0.00,weatherlink.com 1.10,2013-02-01 10:11:00,
2013-02-01 05:26:00,12.8,10.0,30.25,WNW,300,3.0,8.0,88,0.00,,,0.00,weatherlink.com 1.10,2013-02-01 10:26:00,
2013-02-01 05:41:00,12.6,10.0,30.26,WNW,296,4.0,11.0,89,0.00,,,0.00,weatherlink.com 1.10,2013-02-01 10:41:00,
2013-02-01 05:56:00,12.5,10.0,30.28,NNE,32,1.0,6.0,89,0.00,,,0.00,weatherlink.com 1.10,2013-02-01 10:56:00,
2013-02-01 06:11:00,12.3,10.0,30.29,North,355,2.0,9.0,90,0.00,,,0.00,weatherlink.com 1.10,2013-02-01 11:11:00,
2013-02-01 06:26:00,11.4,9.0,30.31,NNW,332,4.0,9.0,89,0.00,,,0.00,weatherlink.com 1.10,2013-02-01 11:26:00,
2013-02-01 06:42:00,11.2,9.0,30.32,WNW,283,6.0,13.0,89,0.00,,,0.00,weatherlink.com 1.10,2013-02-01 11:42:00,
2013-02-01 06:57:00,10.5,8.0,30.33,North,355,3.0,8.0,89,0.00,,,0.00,weatherlink.com 1.10,2013-02-01 11:57:00,
2013-02-01 07:12:00,10.5,8.0,30.34,West,267,4.0,8.0,89,0.00,,,0.00,weatherlink.com 1.10,2013-02-01 12:12:00,
2013-02-01 07:27:00,9.9,7.0,30.35,NW,309,4.0,11.0,88,0.00,,,0.00,weatherlink.com 1.10,2013-02-01 12:27:00,
2013-02-01 07:42:00,9.0,6.0,30.36,WNW,299,2.0,7.0,88,0.00,,,0.00,weatherlink.com 1.10,2013-02-01 12:42:00,
2013-02-01 07:57:00,9.0,6.0,30.37,WNW,291,1.0,7.0,89,0.00,,,0.00,weatherlink.com 1.10,2013-02-01 12:57:00,
2013-02-01 08:12:00,8.7,6.0,30.39,WSW,241,2.0,9.0,88,0.00,,,0.00,weatherlink.com 1.10,2013-02-01 13:12:00,
2013-02-01 08:27:00,8.7,6.0,30.40,WSW,251,0.0,9.0,88,0.00,,,0.00,weatherlink.com 1.10,2013-02-01 13:27:00,
2013-02-01 08:42:00,8.7,6.0,30.42,NNW,348,0.0,6.0,88,0.00,,,0.00,weatherlink.com 1.10,2013-02-01 13:42:00,
2013-02-01 08:57:00,8.8,6.0,30.43,SW,215,6.0,8.0,88,0.00,,,0.00,weatherlink.com 1.10,2013-02-01 13:57:00,
2013-02-01 09:12:00,8.8,6.0,30.44,WSW,239,2.0,12.0,87,0.00,,,0.00,weatherlink.com 1.10,2013-02-01 14:12:00,
2013-02-01 09:27:00,9.2,6.0,30.44,WSW,249,4.0,7.0,87,0.00,,,0.00,weatherlink.com 1.10,2013-02-01 14:27:00,
2013-02-01 09:42:00,8.7,6.0,30.45,WNW,284,2.0,6.0,87,0.00,,,0.00,weatherlink.com 1.10,2013-02-01 14:42:00,
2013-02-01 09:57:00,9.0,6.0,30.46,West,274,3.0,7.0,86,0.00,,,0.00,weatherlink.com 1.10,2013-02-01 14:57:00,
2013-02-01 10:13:00,10.1,7.0,30.47,WNW,294,2.0,7.0,86,0.00,,,0.00,weatherlink.com 1.10,2013-02-01 15:13:00,
2013-02-01 10:28:00,10.4,7.0,30.48,East,96,1.0,9.0,85,0.00,,,0.00,weatherlink.com 1.10,2013-02-01 15:28:00,
2013-02-01 10:43:00,9.6,7.0,30.49,SW,230,1.0,7.0,87,0.00,,,0.00,weatherlink.com 1.10,2013-02-01 15:43:00,
2013-02-01 10:58:00,9.9,7.0,30.50,NNE,20,1.0,11.0,87,0.00,,,0.00,weatherlink.com 1.10,2013-02-01 15:58:00,
2013-02-01 11:13:00,10.6,8.0,30.51,NNW,344,5.0,12.0,87,0.00,,,0.00,weatherlink.com 1.10,2013-02-01 16:13:00,
2013-02-01 11:28:00,11.0,7.0,30.51,NE,53,1.0,13.0,84,0.00,,,0.00,weatherlink.com 1.10,2013-02-01 16:28:00,
2013-02-01 11:43:00,10.4,7.0,30.52,NNW,346,6.0,12.0,84,0.00,,,0.00,weatherlink.com 1.10,2013-02-01 16:43:00,
2013-02-01 11:58:00,11.0,7.0,30.52,NNE,17,0.0,8.0,85,0.00,,,0.00,weatherlink.com 1.10,2013-02-01 16:58:00,
2013-02-01 12:13:00,11.8,8.0,30.53,South,180,3.0,10.0,84,0.00,,,0.00,weatherlink.com 1.10,2013-02-01 17:13:00,
2013-02-01 12:28:00,12.3,8.0,30.52,ENE,69,2.0,12.0,84,0.00,,,0.00,weatherlink.com 1.10,2013-02-01 17:28:00,
2013-02-01 12:43:00,13.1,9.0,30.52,West,277,0.0,6.0,83,0.00,,,0.00,weatherlink.com 1.10,2013-02-01 17:43:00,
2013-02-01 12:58:00,12.8,8.0,30.52,NNW,336,5.0,10.0,81,0.00,,,0.00,weatherlink.com 1.10,2013-02-01 17:58:00,
2013-02-01 13:13:00,12.9,8.0,30.52,East,94,0.0,11.0,80,0.00,,,0.00,weatherlink.com 1.10,2013-02-01 18:13:00,
2013-02-01 13:29:00,12.1,7.0,30.52,WSW,253,1.0,8.0,81,0.00,,,0.00,weatherlink.com 1.10,2013-02-01 18:29:00,
2013-02-01 13:44:00,11.6,7.0,30.53,NNE,26,2.0,9.0,81,0.00,,,0.00,weatherlink.com 1.10,2013-02-01 18:44:00,
2013-02-01 13:59:00,12.6,8.0,30.53,SSW,213,4.0,9.0,80,0.00,,,0.00,weatherlink.com 1.10,2013-02-01 18:59:00,
2013-02-01 14:14:00,13.2,8.0,30.54,SE,124,2.0,10.0,79,0.00,,,0.00,weatherlink.com 1.10,2013-02-01 19:14:00,
2013-02-01 14:29:00,13.9,9.0,30.54,South,190,0.0,7.0,80,0.01,,,0.01,weatherlink.com 1.10,2013-02-01 19:29:00,
2013-02-01 14:44:00,14.3,9.0,30.54,WNW,284,2.0,13.0,80,0.01,,,0.01,weatherlink.com 1.10,2013-02-01 19:44:00,
2013-02-01 14:59:00,15.3,10.0,30.54,SSE,157,6.0,7.0,80,0.02,,,0.02,weatherlink.com 1.10,2013-02-01 19:59:00,
2013-02-01 15:14:00,14.1,9.0,30.54,East,91,1.0,8.0,79,0.02,,,0.02,weatherlink.com 1.10,2013-02-01 20:14:00,
2013-02-01 15:29:00,14.5,9.0,30.55,NW,316,4.0,10.0,78,0.01,,,0.02,weatherlink.com 1.10,2013-02-01 20:29:00,
2013-02-01 15:44:00,13.9,9.0,30.55,SW,215,6.0,7.0,79,0.01,,,0.02,weatherlink.com 1.10,2013-02-01 20:44:00,
2013-02-01 15:59:00,13.9,9.0,30.55,SW,220,3.0,7.0,80,0.00,,,0.02,weatherlink.com 1.10,2013-02-01 20:59:00,
2013-02-01 16:14:00,12.9,8.0,30.55,West,273,3.0,11.0,79,0.00,,,0.02,weatherlink.com 1.10,2013-02-01 21:14:00,
2013-02-01 16:31:00,12.5,7.0,30.56,East,96,1.0,7.0,78,0.00,,,0.00,weatherlink.com 1.10,2013-02-01 21:31:00,
2013-02-01 16:44:00,11.9,7.0,30.56,WSW,248,3.0,10.0,79,0.00,,,0.00,weatherlink.com 1.10,2013-02-01 21:44:00,
2013-02-01 17:00:00,11.9,7.0,30.57,WSW,247,2.0,7.0,80,0.00,,,0.00,weatherlink.com 1.10,2013-02-01 22:00:00,
2013-02-01 17:15:00,11.6,7.0,30.57,West,276,2.0,4.0,82,0.00,,,0.00,weatherlink.com 1.10,2013-02-01 22:15:00,
2013-02-01 17:30:00,11.6,7.0,30.57,WNW,298,0.0,4.0,82,0.00,,,0.00,weatherlink.com 1.10,2013-02-01 22:30:00,
2013-02-01 17:45:00,11.4,7.0,30.58,NW,315,3.0,4.0,83,0.00,,,0.00,weatherlink.com 1.10,2013-02-01 22:45:00,
2013-02-01 18:00:00,11.2,7.0,30.57,WSW,238,0.0,3.0,83,0.00,,,0.00,weatherlink.com 1.10,2013-02-01 23:00:00,
2013-02-01 18:15:00,10.9,7.0,30.58,West,269,0.0,3.0,84,0.00,,,0.00,weatherlink.com 1.10,2013-02-01 23:15:00,
2013-02-01 18:30:00,10.3,6.0,30.58,NE,48,0.0,1.0,84,0.00,,,0.00,weatherlink.com 1.10,2013-02-01 23:30:00,
2013-02-01 18:45:00,9.6,6.0,30.59,South,187,0.0,1.0,85,0.00,,,0.00,weatherlink.com 1.10,2013-02-01 23:45:00,
2013-02-01 19:00:00,9.1,6.0,30.59,South,186,0.0,0.0,85,0.00,,,0.00,weatherlink.com 1.10,2013-02-02 00:00:00,
2013-02-01 19:15:00,8.7,5.0,30.59,SE,124,0.0,0.0,86,0.00,,,0.00,weatherlink.com 1.10,2013-02-02 00:15:00,
2013-02-01 19:30:00,8.8,6.0,30.60,SSW,206,0.0,1.0,87,0.00,,,0.00,weatherlink.com 1.10,2013-02-02 00:30:00,
2013-02-01 19:45:00,8.7,5.0,30.61,West,271,0.0,1.0,86,0.00,,,0.00,weatherlink.com 1.10,2013-02-02 00:45:00,
2013-02-01 20:00:00,8.7,5.0,30.61,West,269,0.0,0.0,86,0.00,,,0.00,weatherlink.com 1.10,2013-02-02 01:00:00,
2013-02-01 20:15:00,8.8,6.0,30.62,WNW,293,0.0,2.0,87,0.00,,,0.00,weatherlink.com 1.10,2013-02-02 01:15:00,
2013-02-01 20:30:00,9.1,6.0,30.62,WNW,302,0.0,1.0,86,0.00,,,0.00,weatherlink.com 1.10,2013-02-02 01:30:00,
2013-02-01 20:45:00,9.3,6.0,30.62,East,87,0.0,3.0,86,0.00,,,0.00,weatherlink.com 1.10,2013-02-02 01:45:00,
2013-02-01 21:00:00,9.5,6.0,30.62,SW,221,0.0,3.0,87,0.00,,,0.00,weatherlink.com 1.10,2013-02-02 02:00:00,
2013-02-01 21:15:00,9.2,6.0,30.62,East,90,2.0,3.0,86,0.00,,,0.00,weatherlink.com 1.10,2013-02-02 02:15:00,
2013-02-01 21:30:00,9.2,6.0,30.62,SW,236,0.0,1.0,87,0.00,,,0.00,weatherlink.com 1.10,2013-02-02 02:30:00,
2013-02-01 21:45:00,9.1,6.0,30.63,East,94,0.0,3.0,86,0.00,,,0.00,weatherlink.com 1.10,2013-02-02 02:45:00,
2013-02-01 22:00:00,8.8,6.0,30.63,ENE,65,0.0,1.0,86,0.00,,,0.00,weatherlink.com 1.10,2013-02-02 03:00:00,
2013-02-01 22:15:00,9.0,6.0,30.63,South,181,0.0,1.0,87,0.00,,,0.00,weatherlink.com 1.10,2013-02-02 03:15:00,
2013-02-01 22:30:00,9.0,6.0,30.63,NE,43,0.0,1.0,87,0.00,,,0.00,weatherlink.com 1.10,2013-02-02 03:30:00,
2013-02-01 22:45:00,9.1,6.0,30.62,West,277,0.0,2.0,88,0.00,,,0.00,weatherlink.com 1.10,2013-02-02 03:45:00,
2013-02-01 23:00:00,9.1,6.0,30.62,WNW,299,1.0,3.0,87,0.00,,,0.00,weatherlink.com 1.10,2013-02-02 04:00:00,
2013-02-01 23:15:00,9.0,6.0,30.62,WSW,250,0.0,2.0,87,0.00,,,0.00,weatherlink.com 1.10,2013-02-02 04:15:00,
2013-02-01 23:30:00,9.1,6.0,30.62,SW,229,1.0,3.0,87,0.00,,,0.00,weatherlink.com 1.10,2013-02-02 04:30:00,
2013-02-01 23:45:00,9.0,6.0,30.62,NW,315,0.0,2.0,86,0.00,,,0.00,weatherlink.com 1.10,2013-02-02 04:45:00,